TITAN 4B R/B

Satellite information

Favourite Embed

Satellite Type and Status

ROCKET BODYIN ORBIT

Key statistics

Satellite TITAN 4B R/B at a glance.

Uptime

9088

Days in orbit

Revolutions

≈ 15.1

Per day

Orbit

LEO

Low Earth Orbit

Inclination

68.0

Latest

Satellite identification and parameters

Extended collection of information and parameters for TITAN 4B R/B.

Object identification

Identified? True

Debris? False

Object name: TITAN 4B R/B

International designator: 2000-047B

Object number (NORAD): 26474

Object ID (CCSDS): 26474

Country: UNITED STATES OF AMERICA (US)

Current information (Y/N): Y

RCS size: LARGE

Orbital parameters

Period: 95.535 minutes

Inclination: 67.9907 deg

SMA: 6922.597 km

Apoapsis: 576.71 km

Periapsis: 512.215 km

RAAN: 16.7439 deg

Eccentricy: 0.0046583

Argument of periapsis: 314.8707 deg

Mean anomaly: 44.8661 deg

Mean motion: 15.07298087 rev/day

Mean motion (dot): 0.0000209 rev/day2

B* drag term: 0.00014366 1/REarth

Two-line elements (TLE)

Creation date: July 4, 2025, 6:39 p.m.

Reference frame: TEME

Reference center: EARTH

Epoch: July 4, 2025, 3:03 p.m. UTC

TLE line 0: 0 TITAN 4B R/B

TLE line 1: 1 26474U 00047B 25185.62729522 .00002090 00000-0 14366-3 0 9994

TLE line 2: 2 26474 67.9907 16.7439 0046583 314.8707 44.8661 15.07298087355503

Live tracking on map

Real-time ground track for satellite TITAN 4B R/B.

In-orbit conjunctions

A list of the most updated potential collisions computed for object TITAN 4B R/B.

Target Orbit TCA Probability of collision Miss distance Type
CZ-6A DEB SSO 2024-12-19 16:42:06 0.0002804116 120.0 (m) DEBRIS
CZ-6A DEB LEO 2024-11-22 21:51:05 0.0002860624 659.0 (m) DEBRIS
SL-24 R/B SSO 2024-11-14 12:01:21 0.002685295 604.0 (m) ROCKET BODY

Associated space launch

The Onyx (formerly known as Lacrosse) satellites are terrestrial radar imaging reconnaissance satellite operated by the National Reconnaissance Office (NRO).

TITAN 4B R/B was lifted into orbit during the mission ‘Titan 403B | NROL-11’, on board a Titan 403B space rocket.

The launch took place on Aug. 17, 2000, 11:45 p.m. from Space Launch Complex 4E.

For more information about the launch, click the button.

Launch to space Titan 403B | NROL-11
Titan 403B | NROL-11

Agency: N/A

Status: Launch Successful

Launch date: Aug. 17, 2000, 11:45 p.m. UTC

Rocket: Titan 403B

Launch pad: Space Launch Complex 4E

Location: Vandenberg SFB, CA, USA

...

Latest news about this satellite

There are no fresh news available about this satellite. Check back as we update our databases every day.


Newsletter sign-up

Weekly statistics, charts and insights to help you stay on top of the space industry.